#timestamp,LO_Frequency,Hit,StdDev 
1570168815.4,286046999.5,N
1570168835.2,286047002.1,N
1570168855.0,286047001.9,N
1570168855.9,286047001.9,N
1570168875.8,286047004.4,N
1570168895.6,286047001.3,N
1570168915.5,286047005.7,N
1570168935.3,286047004.2,N
1570168955.1,286047004.3,N
1570168975.9,286047003.2,N
1570168995.7,286047003.4,N
1570169015.5,286047003.8,N
1570169035.4,286047002.0,N
1570169055.2,286047000.7,N
1570169075.1,286047000.0,N
1570169076.0,286047000.0,N
1570169095.8,286047002.2,N
1570169115.6,286047000.6,N
1570169135.5,286047003.8,N
1570169155.3,286047004.8,N
1570169175.1,286047007.0,Y
1570169195.9,286047001.8,P
1570169215.7,286047005.7,P
1570169235.6,286047005.4,P
1570169255.4,286047005.5,Y
1570169275.2,286047002.6,P
1570169295.1,286047000.1,N
1570169296.0,286047000.1,N
1570169315.8,286047004.4,N
1570169335.7,286047002.0,N
1570169355.5,286047004.4,N
1570169375.3,286047001.3,N
1570169395.2,286047002.5,N
1570169415.9,286046999.7,N
1570169435.7,286047002.3,N
1570169455.6,286047001.4,N
1570169475.4,286047003.8,N
1570169495.2,286047004.3,N
1570169515.1,286047001.8,N
1570169516.0,286047001.8,N
1570169535.8,286047000.2,N
1570169555.7,286047002.3,N
1570169575.5,286047000.1,N
1570169595.3,286046999.7,N
1570169615.2,286046999.7,N
1570169635.0,286047002.5,N
1570169635.9,286047002.5,N
1570169655.8,286046999.9,N
1570169675.6,286047001.0,N
1570169695.4,286047000.0,N
1570169715.3,286047002.4,N
1570169735.1,286047001.7,N
1570169755.8,286047004.1,N
1570169775.7,286047003.6,N
1570169795.5,286047004.4,N
1570169815.4,286047004.2,N
1570169835.2,286047003.3,N
1570169855.0,286047003.3,N
1570169855.9,286047003.3,N
1570169875.8,286047003.9,N
1570169895.6,286047005.6,Y
1570169915.4,286047003.8,P
1570169935.3,286047003.3,P
1570169955.1,286047003.9,P
1570169975.9,286047005.4,Y
1570169995.7,286047002.5,P
1570170015.5,286047000.1,N
1570170035.4,286047002.5,N
1570170055.2,286047000.3,N
1570170075.1,286047000.7,N
1570170076.0,286047000.7,N
1570170095.8,286046998.3,N
1570170115.6,286047000.3,N
1570170135.5,286046998.6,N
1570170155.3,286046999.3,N
1570170175.1,286046998.6,N
1570170195.9,286046998.8,N
1570170215.7,286047000.7,N
1570170235.6,286046999.5,N
1570170255.4,286047000.7,N
1570170275.2,286047000.8,N
1570170295.1,286047000.2,N
1570170296.0,286047000.2,N
1570170315.8,286047000.9,N
1570170335.6,286047001.1,N
1570170355.5,286047000.7,N
1570170375.3,286047003.3,N
1570170395.1,286047003.1,N
1570170415.9,286047002.0,N
1570170435.7,286047001.5,N
1570170455.6,286047003.4,N
1570170475.4,286047002.6,N
1570170495.2,286047000.3,N
1570170515.1,286047001.6,N
1570170516.0,286047001.6,N
1570170535.8,286047002.9,N
1570170555.7,286047003.2,N
1570170575.5,286047007.1,Y
1570170595.3,286047003.3,P
1570170615.2,286047005.6,P
1570170635.0,286047006.0,P
1570170635.9,286047006.0,N
1570170655.8,286047007.0,Y
1570170675.6,286046999.9,P
1570170695.4,286047002.8,N
1570170715.3,286047001.2,N
1570170735.1,286046996.5,N
1570170755.8,286046996.8,N
1570170775.7,286046997.8,N
1570170795.5,286046995.3,N
1570170815.4,286046998.0,N
1570170835.2,286046996.4,N
1570170855.0,286046996.4,N
1570170855.9,286046996.4,N
1570170875.8,286046996.4,N
1570170895.6,286046996.8,N
1570170915.4,286047000.8,N
1570170935.3,286046997.3,N
1570170955.1,286046999.4,N
1570170975.9,286047001.0,N
1570170995.7,286047001.1,N
1570171015.5,286047002.5,N
1570171035.4,286046999.8,N
1570171055.2,286047002.5,N
1570171075.0,286047002.8,N
1570171075.9,286047002.8,N
1570171095.8,286047000.2,N
1570171115.6,286046999.7,N
1570171135.5,286047002.3,N
1570171155.3,286047000.0,N
1570171175.1,286047002.8,N
1570171195.9,286047000.0,N
1570171215.7,286047000.5,N
1570171235.5,286047000.9,N
1570171255.4,286047000.0,N
1570171275.2,286046997.0,N
1570171295.1,286047002.8,N
1570171296.0,286047002.8,N
1570171315.8,286047001.4,N
1570171335.6,286047001.6,N
1570171355.5,286046999.9,N
1570171375.3,286046998.8,N
1570171395.1,286046998.7,N
1570171415.9,286046999.5,N
1570171435.7,286046996.9,N
1570171455.6,286046996.7,N
1570171475.4,286046997.1,N
1570171495.2,286046997.3,N
1570171515.1,286046999.0,N
1570171516.0,286046999.0,N
1570171535.8,286047000.8,N
1570171555.6,286046996.6,N
1570171575.5,286047001.0,N
1570171595.3,286046998.4,N
1570171615.2,286046998.7,N
1570171635.9,286046999.6,N
1570171655.7,286047000.2,N
1570171675.6,286047000.3,N
1570171695.4,286047001.2,N
1570171715.2,286046997.0,N
1570171735.1,286046997.4,N
1570171736.0,286046997.4,N
1570171755.8,286046997.5,N
1570171775.7,286046995.8,N
1570171795.5,286046995.0,N
1570171815.3,286046997.5,N
1570171835.2,286046997.6,N
1570171855.0,286046999.0,N
1570171855.9,286046999.0,N
1570171875.7,286047000.7,N
1570171895.6,286046999.1,N
1570171915.4,286046997.4,N
1570171935.3,286046996.7,N
1570171955.1,286046996.5,N
1570171956.0,286046996.5,N
1570171975.8,286047001.1,N
1570171995.7,286047000.8,N
1570172015.5,286046997.2,N
1570172035.3,286046994.9,N
1570172055.2,286046995.2,N
1570172075.0,286046998.0,N
1570172075.9,286046998.0,N
1570172095.8,286046995.3,N
1570172115.6,286046995.1,N
1570172135.4,286046996.4,N
1570172155.3,286046995.9,N
1570172175.1,286046997.1,N
1570172195.9,286046998.7,N
1570172215.7,286047001.1,N
1570172235.5,286046999.1,N
1570172255.4,286046999.3,N
1570172275.2,286046998.5,N
1570172295.0,286046998.5,N
1570172295.9,286046998.5,N
1570172315.8,286046997.2,N
1570172335.6,286046999.5,N
1570172355.4,286046997.8,N
1570172375.3,286046996.8,N
1570172395.1,286046997.1,N
